Overview Statistics Trail Chart Weather Telemetry Raw packets
 

This is the latest recevied weather packets stored in our database for station/object KF0WJA. If no packets are shown the sender has not sent any weather packets the latest 10 day(s).

<< 94 95 96 97 98 99 100 >>
Time Temp. Humidity Pressure Rain* Wind** Luminosity Snow
1787962852 32.78° C 39% 1018.7 hPa 0 mm - 49 W/m² -
1787962550 32.78° C 38% 1018.9 hPa 0 mm - 56 W/m² -
1787962249 32.78° C 38% 1018.6 hPa 0 mm - 69 W/m² -
1787961944 33.33° C 37% 1018.7 hPa 0 mm - 79 W/m² -
1787961639 33.33° C 37% 1018.7 hPa 0 mm - 93 W/m² -
1787961332 33.33° C 36% 1018.7 hPa 0 mm - 111 W/m² -
1787961027 33.89° C 36% 1018.6 hPa 0 mm - 126 W/m² -
1787960721 33.89° C 35% 1019 hPa 0 mm - 147 W/m² -
1787960421 33.89° C 35% 1018.7 hPa 0 mm - 150 W/m² -
1787960116 33.89° C 36% 1018.7 hPa 0 mm - 165 W/m² -
1787959811 33.89° C 35% 1018.9 hPa 0 mm - 187 W/m² -
1787959506 33.89° C 34% 1018.7 hPa 0 mm - 189 W/m² -
1787959200 33.89° C 35% 1018.6 hPa 0 mm - 218 W/m² -
1787958895 33.89° C 36% 1018.7 hPa 0 mm - 233 W/m² -
1787958595 34.44° C 36% 1019.1 hPa 0 mm - 241 W/m² -
1787958291 34.44° C 35% 1019 hPa 0 mm - 271 W/m² -
1787957991 35° C 35% 1018.7 hPa 0 mm - 285 W/m² -
1787957690 35° C 34% 1019 hPa 0 mm - 304 W/m² -
1787957386 35° C 35% 1019 hPa 0 mm - 316 W/m² -
1787957084 35° C 35% 1019.1 hPa 0 mm - 320 W/m² -
1787956779 34.44° C 35% 1019 hPa 0 mm - 338 W/m² -
1787956474 35° C 34% 1019.2 hPa 0 mm - 361 W/m² -
1787956169 35° C 34% 1019.1 hPa 0 mm - 379 W/m² -
1787955869 35° C 34% 1019.1 hPa 0 mm - 379 W/m² -
1787955565 35.56° C 33% 1019 hPa 0 mm - 399 W/m² -

* Rain latest hour (hover to see other rain measurements)
** Current wind speed in m/s (hover to see current wind gust speed)